• en France
  • Liste des pays
  • À 7 jours
  • Température de l'eau
  • Carte satellitaire
  • Carte météo
  • Widgets météo
  • user-avatar
    Se connecter

    Météo par heure à Coleraine

    Ce jour, 20 Novembre, Lundi

    Heure Température Précipitation Vent Pression Humidité
    00:00 +8°C° 0 mm 9 m/s 755 mmHg 93%
    01:00 +9°C° 0,3 mm 8 m/s 755 mmHg 94%
    02:00 +10°C° 0,3 mm 7 m/s 754 mmHg 94%
    03:00 +10°C° 0,3 mm 6 m/s 754 mmHg 94%
    04:00 +10°C° 0,2 mm 6 m/s 753 mmHg 94%
    05:00 +10°C° 0,2 mm 6 m/s 753 mmHg 93%
    06:00 +10°C° 0 mm 5 m/s 753 mmHg 92%
    07:00 +10°C° 0,6 mm 6 m/s 753 mmHg 92%
    08:00 +10°C° 0,6 mm 7 m/s 753 mmHg 92%
    09:00 +10°C° 0,6 mm 8 m/s 753 mmHg 92%
    10:00 +10°C° 0,1 mm 7 m/s 753 mmHg 92%
    11:00 +11°C° 0,1 mm 7 m/s 753 mmHg 92%
    12:00 +11°C° 0,1 mm 7 m/s 753 mmHg 92%
    13:00 +11°C° 0,1 mm 6 m/s 753 mmHg 92%
    14:00 +11°C° 0,1 mm 6 m/s 753 mmHg 92%
    15:00 +10°C° 0,1 mm 5 m/s 753 mmHg 92%
    16:00 +10°C° 0,1 mm 5 m/s 753 mmHg 93%
    17:00 +10°C° 0,1 mm 5 m/s 753 mmHg 94%
    18:00 +10°C° 0,1 mm 4 m/s 753 mmHg 95%
    19:00 +11°C° 0,9 mm 4 m/s 753 mmHg 96%
    20:00 +11°C° 0,9 mm 4 m/s 753 mmHg 96%
    21:00 +11°C° 0,9 mm 3 m/s 753 mmHg 97%
    22:00 +11°C° 1,4 mm 3 m/s 753 mmHg 97%
    23:00 +11°C° 1,4 mm 3 m/s 752 mmHg 97%

    Demain, 21 Novembre, Mardi

    Heure Température Précipitation Vent Pression Humidité
    00:00 +12°C° 1,4 mm 2 m/s 752 mmHg 97%
    01:00 +12°C° 1,1 mm 3 m/s 752 mmHg 96%
    02:00 +12°C° 1,1 mm 3 m/s 751 mmHg 95%
    03:00 +13°C° 1,1 mm 4 m/s 751 mmHg 94%
    04:00 +13°C° 0,4 mm 4 m/s 751 mmHg 94%
    05:00 +13°C° 0,4 mm 4 m/s 750 mmHg 94%
    06:00 +13°C° 0,4 mm 4 m/s 750 mmHg 94%
    07:00 +12°C° 0,4 mm 4 m/s 749 mmHg 94%
    08:00 +12°C° 0,4 mm 4 m/s 749 mmHg 93%
    09:00 +12°C° 0,4 mm 5 m/s 748 mmHg 93%
    10:00 +12°C° 1,2 mm 5 m/s 747 mmHg 93%
    11:00 +11°C° 1,2 mm 6 m/s 746 mmHg 93%
    12:00 +11°C° 1,2 mm 7 m/s 745 mmHg 92%
    13:00 +11°C° 0,5 mm 6 m/s 744 mmHg 92%
    14:00 +13°C° 0,5 mm 6 m/s 744 mmHg 92%
    15:00 +13°C° 0,5 mm 6 m/s 743 mmHg 92%
    16:00 +13°C° 0 mm 6 m/s 742 mmHg 92%
    17:00 +13°C° 0 mm 6 m/s 742 mmHg 92%
    18:00 +13°C° 0 mm 6 m/s 742 mmHg 93%
    19:00 +13°C° 0,2 mm 6 m/s 741 mmHg 92%
    20:00 +13°C° 0,2 mm 6 m/s 741 mmHg 92%
    21:00 +12°C° 0,2 mm 7 m/s 741 mmHg 91%
    22:00 +13°C° 0,2 mm 6 m/s 740 mmHg 91%
    23:00 +11°C° 0,2 mm 6 m/s 740 mmHg 91%

    Après-demain, 22 Novembre, Mercredi

    Heure Température Précipitation Vent Pression Humidité
    00:00 +12°C° 0,2 mm 5 m/s 740 mmHg 91%
    01:00 +10°C° 0,1 mm 5 m/s 739 mmHg 91%
    02:00 +10°C° 0,1 mm 5 m/s 739 mmHg 92%
    03:00 +10°C° 0,1 mm 4 m/s 739 mmHg 92%
    04:00 +10°C° 0 mm 4 m/s 739 mmHg 92%
    05:00 +10°C° 0 mm 4 m/s 739 mmHg 92%
    06:00 +8°C° 0 mm 4 m/s 739 mmHg 92%
    07:00 +9°C° 0 mm 3 m/s 738 mmHg 92%
    08:00 +8°C° 0 mm 2 m/s 738 mmHg 92%
    09:00 +8°C° 0 mm 2 m/s 738 mmHg 93%
    10:00 +9°C° 0 mm 1 m/s 738 mmHg 91%
    11:00 +10°C° 0 mm 1 m/s 737 mmHg 89%
    12:00 +10°C° 0 mm 1 m/s 736 mmHg 87%
    13:00 +10°C° 0,1 mm 1 m/s 736 mmHg 88%
    14:00 +9°C° 0,1 mm 2 m/s 735 mmHg 90%
    15:00 +9°C° 0,1 mm 2 m/s 735 mmHg 91%
    16:00 +9°C° 0,7 mm 3 m/s 734 mmHg 93%
    17:00 +8°C° 0,7 mm 4 m/s 733 mmHg 94%
    18:00 +8°C° 0,7 mm 5 m/s 733 mmHg 95%
    19:00 +8°C° 0,5 mm 5 m/s 732 mmHg 95%
    20:00 +7°C° 0,5 mm 5 m/s 732 mmHg 94%
    21:00 +7°C° 0,5 mm 6 m/s 731 mmHg 93%
    22:00 +6°C° 0,2 mm 7 m/s 731 mmHg 92%
    23:00 +6°C° 0,2 mm 7 m/s 731 mmHg 90%

    23 Novembre, Jeudi

    Heure Température Précipitation Vent Pression Humidité
    00:00 +6°C° 0,2 mm 8 m/s 731 mmHg 89%
    01:00 +5°C° 0,1 mm 9 m/s 731 mmHg 86%
    02:00 +3°C° 0,1 mm 9 m/s 732 mmHg 83%
    03:00 +2°C° 0,1 mm 10 m/s 732 mmHg 80%
    04:00 +2°C° 0 mm 10 m/s 732 mmHg 78%
    05:00 +2°C° 0 mm 11 m/s 732 mmHg 75%
    06:00 +3°C° 0 mm 12 m/s 733 mmHg 73%
    07:00 +3°C° 0,1 mm 12 m/s 733 mmHg 72%
    08:00 +3°C° 0,1 mm 12 m/s 733 mmHg 70%
    09:00 +3°C° 0,1 mm 13 m/s 733 mmHg 69%
    10:00 +4°C° 0,2 mm 12 m/s 734 mmHg 70%
    11:00 +4°C° 0,2 mm 12 m/s 735 mmHg 71%
    12:00 +6°C° 0,2 mm 11 m/s 736 mmHg 72%
    13:00 +6°C° 0,1 mm 11 m/s 737 mmHg 74%
    14:00 +5°C° 0,1 mm 10 m/s 739 mmHg 75%
    15:00 +5°C° 0,1 mm 9 m/s 740 mmHg 77%
    16:00 +4°C° 0,1 mm 8 m/s 741 mmHg 77%
    17:00 +4°C° 0,1 mm 7 m/s 743 mmHg 78%
    18:00 +3°C° 0,1 mm 6 m/s 744 mmHg 79%
    19:00 +3°C° 0,1 mm 5 m/s 745 mmHg 80%
    20:00 +3°C° 0,1 mm 4 m/s 746 mmHg 82%
    21:00 +3°C° 0,1 mm 4 m/s 748 mmHg 83%
    22:00 +3°C° 0,2 mm 3 m/s 748 mmHg 84%
    23:00 +3°C° 0,2 mm 3 m/s 748 mmHg 85%

    24 Novembre, Vendredi

    Heure Température Précipitation Vent Pression Humidité
    00:00 +3°C° 0,2 mm 2 m/s 749 mmHg 86%
    01:00 +3°C° 0,1 mm 2 m/s 749 mmHg 87%
    02:00 +3°C° 0,1 mm 2 m/s 749 mmHg 87%
    03:00 +3°C° 0,1 mm 2 m/s 749 mmHg 88%
    04:00 +3°C° 0,1 mm 2 m/s 749 mmHg 87%
    05:00 +3°C° 0,1 mm 2 m/s 749 mmHg 85%
    06:00 +4°C° 0,1 mm 2 m/s 749 mmHg 84%
    07:00 +4°C° 0,1 mm 2 m/s 750 mmHg 83%
    08:00 +4°C° 0,1 mm 2 m/s 750 mmHg 82%
    09:00 +4°C° 0,1 mm 2 m/s 750 mmHg 81%
    10:00 +4°C° 0 mm 3 m/s 750 mmHg 78%
    11:00 +4°C° 0 mm 4 m/s 751 mmHg 75%
    12:00 +5°C° 0 mm 4 m/s 751 mmHg 71%
    13:00 +5°C° 0,1 mm 5 m/s 751 mmHg 71%
    14:00 +3°C° 0,1 mm 5 m/s 751 mmHg 71%
    15:00 +3°C° 0,1 mm 6 m/s 751 mmHg 71%
    16:00 +2°C° 0,1 mm 6 m/s 752 mmHg 72%
    17:00 +1°C° 0,1 mm 6 m/s 752 mmHg 73%
    18:00 -1°C° 0,1 mm 6 m/s 753 mmHg 74%
    19:00 -1°C° 0,2 mm 6 m/s 753 mmHg 74%
    20:00 0°C° 0,2 mm 5 m/s 754 mmHg 75%
    21:00 0°C° 0,2 mm 5 m/s 754 mmHg 76%
    22:00 0°C° 0,2 mm 5 m/s 754 mmHg 75%
    23:00 -1°C° 0,2 mm 5 m/s 755 mmHg 75%

    25 Novembre, Samedi

    Heure Température Précipitation Vent Pression Humidité
    00:00 -1°C° 0,2 mm 5 m/s 755 mmHg 75%
    01:00 -1°C° 0,2 mm 6 m/s 755 mmHg 76%
    02:00 -1°C° 0,2 mm 6 m/s 756 mmHg 76%
    03:00 -1°C° 0,2 mm 6 m/s 756 mmHg 76%
    04:00 -1°C° 0,2 mm 6 m/s 756 mmHg 76%
    05:00 -1°C° 0,2 mm 7 m/s 756 mmHg 75%
    06:00 -1°C° 0,2 mm 7 m/s 757 mmHg 75%
    07:00 -1°C° 0,3 mm 7 m/s 757 mmHg 74%
    08:00 -1°C° 0,3 mm 8 m/s 758 mmHg 74%
    09:00 0°C° 0,3 mm 8 m/s 758 mmHg 73%
    10:00 0°C° 0,3 mm 8 m/s 759 mmHg 71%
    11:00 +1°C° 0,3 mm 9 m/s 759 mmHg 69%
    12:00 +1°C° 0,3 mm 9 m/s 759 mmHg 67%
    13:00 +1°C° 0,3 mm 9 m/s 760 mmHg 69%
    14:00 +1°C° 0,3 mm 9 m/s 760 mmHg 71%
    15:00 +1°C° 0,3 mm 9 m/s 760 mmHg 73%
    16:00 0°C° 0,2 mm 9 m/s 761 mmHg 73%
    17:00 0°C° 0,2 mm 9 m/s 761 mmHg 74%
    18:00 -1°C° 0,2 mm 9 m/s 762 mmHg 75%
    19:00 -1°C° 0,2 mm 9 m/s 762 mmHg 76%
    20:00 -1°C° 0,2 mm 9 m/s 763 mmHg 76%
    21:00 -1°C° 0,2 mm 9 m/s 763 mmHg 76%
    22:00 -1°C° 0,2 mm 9 m/s 764 mmHg 76%
    23:00 -1°C° 0,2 mm 9 m/s 764 mmHg 76%
    Voir plus